Satellite-Ground Cal/Val Site Overpasses Predictions

Prediction of Satellite NPP Overpassing Cal/Val Site: Antarctic Dome C

Ground Cal/Val Site Location: Latitude: -75.10, Longitude: 123.35; Satellite-Ground Site NADIR distance within 100 km.

Table of predicted overpasses for the next 14.0 days since TLE Epoch: 7/20/2025
Interval Starting Time Ending Time Minimum Distance Time Minimum Distance (km)
1 07/20/2025 14:44:29 07/20/2025 14:44:55 07/20/2025 14:44:42 48.01
2 07/21/2025 07:46:10 07/21/2025 07:46:31 07/21/2025 07:46:20 67.52
3 07/22/2025 07:27:18 07/22/2025 07:27:45 07/22/2025 07:27:32 40.54
4 07/24/2025 15:09:47 07/24/2025 15:09:51 07/24/2025 15:09:49 98.58
5 07/25/2025 14:50:44 07/25/2025 14:51:13 07/25/2025 14:50:58 12.89
6 07/27/2025 07:33:34 07/27/2025 07:34:04 07/27/2025 07:33:49 4.17
7 07/30/2025 14:57:01 07/30/2025 14:57:30 07/30/2025 14:57:15 23.46
8 07/31/2025 14:38:19 07/31/2025 14:38:35 07/31/2025 14:38:27 83.62
9 08/01/2025 07:39:51 08/01/2025 07:40:19 08/01/2025 07:40:05 31.53
